Weather History for KLXV - May, 2013

Change the Weather History Date:

Friday, May 17, 2013

  Actual Average Record
Temperature  
Mean Temperature 47 °F -  
Max Temperature 64 °F 55 °F 67 °F (1992)
Min Temperature 30 °F 28 °F 18 °F (1983)
Degree Days  
Heating Degree Days 18 24  
Month to date heating degree days 472 448  
Since 1 July heating degree days 10442 10449  
Cooling Degree Days 0 0  
Month to date cooling degree days 0 0  
Year to date cooling degree days 0 0  
Moisture  
Dew Point 16 °F    
Average Humidity 44    
Maximum Humidity 78    
Minimum Humidity 9    
Precipitation  
Precipitation 0.00 in 0.02 in 0.17 in (2001)
Month to date precipitation 1.48 0.46  
Year to date precipitation 6.99 3.79  
Sea Level Pressure  
Sea Level Pressure 29.82 in    
Wind  
Wind Speed 8 mph (South)    
Max Wind Speed 26 mph    
Max Gust Speed 31 mph    
Visibility 10 miles    
Events      
T = Trace of Precipitation, MM = Missing Value Source: NWS Daily Summary

Daily Weather History Graph

Daily Weather History Graph

Search for Another Location

Airport or City:

Trip Planner

Search our weather history database for the weather conditions in past years. The results will help you decide how hot, cold, wet, or windy it might be!

Date:

Astronomy

May. 17, 2013 Rise Set
Actual Time 5:49 AM MDT 8:13 PM MDT
Civil Twilight 5:19 AM MDT 8:44 PM MDT
Nautical Twilight 4:42 AM MDT 9:22 PM MDT
Astronomical Twilight 4:00 AM MDT 10:03 PM MDT
Moon 12:23 PM MDT (5/17) 1:08 AM MDT (5/17)
Length of Visible Light 15h 24m
Length of Day
14h 23m
Waxing Crescent, 46% of the Moon is Illuminated
May 17
Waxing Crescent
May 17
First Quarter
May 24
Full
May 31
Last Quarter
Jun 8
New

Hourly Weather History & Observations

Time (MDT) Temp. Windchill Dew Point Humidity Pressure Visibility Wind Dir Wind Speed Gust Speed Precip Events Conditions
12:53 AM 35.1 °F - 25.0 °F 67% 29.79 in 10.0 mi Calm Calm - N/A   Clear
1:53 AM 34.0 °F - 25.0 °F 70% 29.81 in 10.0 mi Calm Calm - N/A   Clear
2:53 AM 34.0 °F 29.8 °F 24.1 °F 67% 29.80 in 10.0 mi NE 4.6 mph - N/A   Clear
3:53 AM 30.9 °F 27.5 °F 23.0 °F 72% 29.80 in 10.0 mi Variable 3.5 mph - N/A   Clear
4:53 AM 30.9 °F 27.5 °F 23.0 °F 72% 29.79 in 10.0 mi East 3.5 mph - N/A   Clear
5:53 AM 30.2 °F - 24.8 °F 80% 30.18 in 10.0 mi Calm Calm - N/A   Clear
6:53 AM 36.0 °F - 24.1 °F 62% 29.81 in 10.0 mi Calm Calm - N/A   Clear
7:53 AM 42.1 °F 38.4 °F 26.1 °F 53% 29.81 in 10.0 mi WSW 5.8 mph - N/A   Clear
8:53 AM 50.0 °F - 16.0 °F 26% 29.80 in 10.0 mi South 8.1 mph - N/A   Clear
9:53 AM 52.0 °F - 14.0 °F 22% 29.79 in 10.0 mi SSW 5.8 mph 16.1 mph N/A   Clear
10:53 AM 55.0 °F - 12.9 °F 19% 29.79 in 10.0 mi South 11.5 mph 19.6 mph N/A   Clear
11:53 AM 57.0 °F - 12.0 °F 17% 29.78 in 10.0 mi South 12.7 mph 20.7 mph N/A   Clear
12:53 PM 59.0 °F - 6.8 °F 13% 30.18 in 10.0 mi South 16.1 mph 27.6 mph N/A   Clear
1:53 PM 59.0 °F - 10.0 °F 14% 29.76 in 10.0 mi Variable 5.8 mph 16.1 mph N/A   Scattered Clouds
2:53 PM 63.0 °F - 3.9 °F 10% 29.71 in 10.0 mi South 23.0 mph 31.1 mph N/A   Partly Cloudy
3:53 PM 63.0 °F - 8.1 °F 11% 29.71 in 10.0 mi SSW 16.1 mph 25.3 mph N/A   Clear
4:53 PM 60.1 °F - 5.0 °F 11% 29.72 in 10.0 mi SSW 10.4 mph 23.0 mph N/A   Clear
5:53 PM 60.1 °F - 3.0 °F 10% 29.71 in 10.0 mi SW 12.7 mph 25.3 mph N/A   Clear
6:00 PM 60.8 °F - 3.2 °F 10% 30.11 in 10.0 mi SSW 15.0 mph 19.6 mph N/A   Clear
6:53 PM 57.9 °F - 5.0 °F 12% 29.71 in 10.0 mi SW 12.7 mph - N/A   Clear
7:53 PM 52.0 °F - 16.0 °F 24% 29.74 in 10.0 mi North 6.9 mph - N/A   Clear
8:53 PM 46.0 °F 44.8 °F 19.0 °F 34% 29.75 in 10.0 mi East 3.5 mph - N/A   Clear
9:53 PM 41.0 °F 35.8 °F 17.1 °F 38% 29.78 in 10.0 mi East 8.1 mph - N/A   Clear
10:53 PM 37.9 °F 32.7 °F 19.9 °F 48% 29.78 in 10.0 mi East 6.9 mph - N/A   Clear
11:53 PM 32.0 °F - 21.0 °F 64% 29.79 in 10.0 mi Calm Calm - N/A   Clear